Location: Godiavel Galaoual
(15.2485°N, 12.6604°W)
Time: 12:47:15
(UTC+00:00)

LightSail 2 - Pass Details

Date: 08 June 2020
Orbit: 692 x 720 km, 24.0° (Epoch: 14 July)

Event Time Altitude Azimuth Distance (km) Brightness Sun altitude
Exits shadow 03:54:25 39° 92° (E) 1,049 6.2 -30.9°
Drops below altitude 10° 03:57:43 10° 103° (ESE) 2,183 8.1 -30.3°
Sets 04:00:11 0° 105° (ESE) 3,106 8.9 -29.8°
